Погода в Холме

Погода в Холме : погода сейчас, прогноз погоды и архив. Всё, что Вы хотите узнать о погоде в Холме!

Поиск расширенной информации на нашем сайте:

Другие новости

Новости СМИ2

Главная страница сайта

Новости сайта

02.10.2013

Напоминаем, что на нашем новом сайте вы можете получить высокодетализированные прогнозы погоды по пунктам России, СНГ и мира (включающие важные для авиации метеовеличины, такие как направление и скорость ветра, видимость, явления погоды, количество и форма облачности, нижняя и верхняя граница облачности), а также ознакомиться с разнообразными материалами по авиационной метеорологии и подборкой полезных ссылок на эту тему.

Сайт Метеоцентр.Азия посвящён разработке технологий оптимизации авиаметеорологического обслуживания, включая проектирование и перспективное создание нескольких автоматизированных авиаметеорологических систем:
- система выпуска высокодетальных прогностических карт явлений погоды для нижнего воздушного пространства по России и ближнему зарубежью;
- система верификации прогнозов TAF (выпускаемых синоптиками официальных АМСГ РФ и ближнего зарубежья) и AUTOTAF (выпускаемых сайтом Метеоцентр.Азия) - выявление ошибок, онлайн-сопоставление с фактической погодой METAR, автоматическое внесение коррективов в прогнозы при резком отклонении фактической погоды от прогноза, подсчёт оправдываемости прогнозов по элементам и в целом;
- система обработки, анализа и отображения авиаметеорологической информации для применения провайдерами метеорологической информации.


Погода в Холме - сегодня

Время (UTC), дата Ветер
(°,м/с) 
Видим.   Явления Облачность Т
(°С)
Тd
(°С)
f(%) Тe
(°С)
Pmin
(гПа)
dP
(гПа)
Po
(мм)
O2
(г/м3)
Тmin Tmax R s Состояние
почвы
12 19.01.17 200 (Ю) 10 км  в посл. час снег  10/0 средняя 
[As op]
-1.2 -2.1 94 -4  1021.6  -1.7  759  308           
15 19.01.17 200 (Ю) 20000 м  {снег}  10/0 средняя 
[As op]
-0.9 -1.7 94 -3  1020.1  -1.4  758  307      0.6     
18 19.01.17 220 (ЮЗ) 20000 м  {снег}  10/0 средняя 
[As op]
+0.1 -0.7 94 -2  1018.3  -1.7  757  305    +0.1  0.3     
21 19.01.17 230 (ЮЗ) 5-10{10}  20000 м    10/0 средняя 
[Ac lent]
+0.5 -0.7 92 -2  1016.7  -1.5  756  304           
00 20.01.17 240 (ЮЗ) 4{10}  20000 м    10/0 средняя 
[Ac lent]
+0.9 +0.1 94 -1  1015.8  -0.9  755  303           
03 20.01.17 260 (З) 20000 м  {ливн. осадки}  9/3 600 м кучево-дожд., средняя 
[Cb cap|Ac trans]
+1.1 -0.1 92 1016.7  0.9  756  303  -0.9    0.8     
06 20.01.17 270 (З) 10 км  {ливн. осадки}  6/3 600 м кучево-дожд., средняя 
[Cb cap|Ac trans]
+0.1 -2.2 84 -1  1018.2  1.4  757  305  -0.1    0.8  17  равномерный
сухой снег
100% 
09 20.01.17 280 (З) 20000 м    ясно 
+0.2 -3.2 78 -2  1019.4  1.1  758  305           
12 20.01.17 270 (З) 20000 м    8/0 верхняя 
[Cc]
-0.6 -5.1 72 -1  1019  -0.4  757  306           
15 20.01.17 210 (ЮЗ) 20000 м    9/0 средняя, верхняя 
[Ac trans|Ci sp]
-2.4 -4.9 83 -2  1018.2  -0.8  757  308           
18 20.01.17 200 (Ю) 10 км  слаб. снег  10/0 средняя 
[As op]
-1.4 -2.2 94 -2  1015.8  -2.4  755  306    +0.4  0.5     
21 20.01.17 210 (ЮЗ) 10 км  слаб. снег  10/0 средняя 
[As op]
-0.7 -1.2 96 -2  1013.6  -2.1  753  305           
00 21.01.17 280 (З) 20000 м  {снег}  10/0 средняя 
[As op]
+0.5 -0.5 93 -1  1013.1  -0.5  753  303           
03 21.01.17 290 (З) 20000 м    10/10 930 м 
[Sc]
+0.2 -2.2 84 -2  1014.4  1.3  754  304  -2.4       
06 21.01.17 290 (З) 20000 м    9/9 960 м 
[Sc]
-1.1 -3.3 85 -2  1015.9  1.4  755  306  -1.4    18  равномерный
сухой снег
100% 
09 21.01.17 270 (З) 20000 м    6/4 600 м верхняя 
[Sc|Cc]
-0.9 -4.4 77 -3  1016.6  0.8  756  306           
12 21.01.17 300 (СЗ) 20000 м    6/6 1110 м 
[Sc]
-0.3 -5 71 -3  1018.6  757  306           
15 21.01.17 270 (З) 20000 м    4/4 600 м 
[Sc]
-2.3 -5.1 81 -4  1021.5  2.8  759  309           
18 21.01.17 270 (З) 20000 м    3/0 средняя 
[Ac trans]
-3.9 -5.3 90 -5  1023.3  1.7  761  312    -0.1       
21 21.01.17 230 (ЮЗ) 20000 м    ясно 
-10 -10.9 93 -10  1024.9  1.4  762  320           
00 22.01.17 220 (ЮЗ) 20000 м    ясно 
-10.7 -11.5 94 -11  1025.1  0.1  762  321           
03 22.01.17 210 (ЮЗ) 20000 м    6/0 средняя 
[Ac trans]
-6.1 -6.8 95 -6  1024.1  -0.8  761  314  -14.1         
06 22.01.17 200 (Ю) 20000 м  {снег}  10/10 600 м 
[Sc]
-3.4 -4.1 95 -6  1021  -3  759  310  -14.1    0.0  18  равномерный
сухой снег
100% 
09 22.01.17 230 (ЮЗ) 20000 м  {ливн. осадки}  10/8 480 м кучево-дожд., средняя 
[Cb cap|Ac As]
-0.4 -1.5 92 -1  1019.4  -1.4  758  306           
12 22.01.17 250 (З) 20000 м  {ливн. осадки}  10/8 450 м кучево-дожд., средняя 
[Cb cap|Ac As]
+1.7 +0 88 1018.9  -0.4  757  303           
Время (UTC), дата Ветер
(°,м/с) 
Видим.   Явления Облачность Т
(°С)
Тd
(°С)
f(%) Тe
(°С)
Pmin
(гПа)
dP
(гПа)
Po
(мм)
O2
(г/м3)
Тmin Tmax R s Состояние
почвы

Для получения пояснительной информации подведите курсор к названию столбца.

ПОГОДА в Холме - архив

Всё, что Вы хотите узнать о погоде в Холме - удобно и подробно!

Выберите нужную дату (начиная с 1 января 2015* года) и нажмите кнопку "Найти".
Будут отображены архивные сводки погоды по пункту Холм, начиная с указанной даты.


Отображать данные в формате CSV (для использования в таблицах Excel)


Внимание! Наш архив погоды предназначен исключительно для личного некоммерческого использования в познавательных целях. Если Вам необходимы официальные справки о состоянии погоды (для производственных, юридических, коммерческих и т.п. целей), обращайтесь в органы Росгидромета.

*Примечание: данная дата относится к архиву по метеостанциям СССР (Россия, СНГ, Балтия).
Архив по метеостанциям Зарубежной Европы и Азии (кроме Китая) хранится 10 дней, по другим регионам земного шара (Китай, Африка, Америка, Австралия, Океания) - 1 день.

Холм - район местоположения метеостанции


Название, широта, долгота, высота метеостанции:
Холм 57.2°ш. 31.2°д. 71 м над ур. моря [Российская Федерация]

Дополнительная информация

В oтличие oт бoльшинства пoгoдных сайтoв мы публикуем пoдрoбную метеoинфoрмацию в детальнoм прoфессиoнальнoм фoрмате.

Характеристики температуры и влажнoсти вoздуха измеряются на высoте 2 м в тени вдали oт зданий и деревьев.
Скoрoсть ветра измеряется на высoте 10 м (на урoвне рoста челoвека скoрoсть ветра ниже в 1.5-2 раза). Если метеoстанция нахoдится в гoрoде или в лесу, тo скoрoсть ветра занижена на 2-4 м/с пo сравнению с oткрытым местoм. Скoрoсть ветра над акватoриями крупных рек и oзёр, а также на вершинах хoлмoв на 2-5 м/с выше, чем в oбычных услoвиях.
Атмoсфернoе давление в разных тoчках местнoсти мoжет значительнo oтличаться oт давления на метеoстанции, в зависимoсти oт услoвий рельефа (при пoдъёме на 10 м давление пoнижается примернo на 1 мм рт.ст.).